Time,TemperatureF,DewpointF,PressureIn,WindDirection,WindDirectionDegrees,WindSpeedMPH,WindSpeedGustMPH,Humidity,HourlyPrecipIn,Conditions,Clouds,dailyrainin,SoftwareType,DateUTC
2013-10-12 00:04:00,50.9,48.4,30.18,NE,36,0.0,0.0,91,0.00,SKC,OVC,0.00,WeatherDisplay:10.37,2013-10-12 04:04:00,
2013-10-12 00:09:00,51.3,49.0,30.18,NE,36,0.0,1.0,92,0.00,SKC,OVC,0.00,WeatherDisplay:10.37,2013-10-12 04:09:00,
2013-10-12 00:14:00,51.8,49.2,30.18,NE,36,0.0,0.0,91,0.00,SKC,OVC,0.00,WeatherDisplay:10.37,2013-10-12 04:14:00,
2013-10-12 00:19:00,52.2,49.6,30.18,NE,36,0.0,1.0,91,0.00,SKC,OVC,0.00,WeatherDisplay:10.37,2013-10-12 04:19:00,
2013-10-12 00:24:00,52.5,49.7,30.18,NE,51,0.0,3.0,90,0.00,SKC,OVC,0.00,WeatherDisplay:10.37,2013-10-12 04:24:00,
2013-10-12 00:29:00,52.7,49.9,30.18,ENE,67,0.0,0.0,90,0.00,SKC,OVC,0.00,WeatherDisplay:10.37,2013-10-12 04:29:00,
2013-10-12 00:34:00,52.8,49.9,30.18,East,79,0.0,1.0,90,0.00,SKC,OVC,0.00,WeatherDisplay:10.37,2013-10-12 04:34:00,
2013-10-12 00:39:00,52.8,49.9,30.18,East,91,0.0,1.0,90,0.00,SKC,OVC,0.00,WeatherDisplay:10.37,2013-10-12 04:39:00,
2013-10-12 00:44:00,52.9,50.0,30.18,East,83,0.0,1.0,90,0.00,SKC,OVC,0.00,WeatherDisplay:10.37,2013-10-12 04:44:00,
2013-10-12 00:49:00,53.1,49.9,30.18,ENE,75,0.0,1.0,89,0.00,SKC,OVC,0.00,WeatherDisplay:10.37,2013-10-12 04:49:00,
2013-10-12 00:54:00,53.0,49.9,30.18,ENE,59,0.0,1.0,89,0.00,SKC,OVC,0.00,WeatherDisplay:10.37,2013-10-12 04:54:00,
2013-10-12 00:59:00,52.8,49.6,30.19,NE,55,0.0,1.0,89,0.00,SKC,OVC,0.00,WeatherDisplay:10.37,2013-10-12 04:59:00,
2013-10-12 01:04:00,52.7,49.8,30.19,NE,54,0.0,1.0,90,0.00,SKC,OVC,0.00,WeatherDisplay:10.37,2013-10-12 05:04:00,
2013-10-12 01:09:00,52.4,49.6,30.19,ESE,111,0.0,2.0,90,0.00,SKC,OVC,0.00,WeatherDisplay:10.37,2013-10-12 05:09:00,
2013-10-12 01:14:00,52.3,49.5,30.19,NE,38,0.0,2.0,90,0.00,SKC,OVC,0.00,WeatherDisplay:10.37,2013-10-12 05:14:00,
2013-10-12 01:19:00,52.1,49.3,30.19,North,4,0.0,0.0,90,0.00,SKC,OVC,0.00,WeatherDisplay:10.37,2013-10-12 05:19:00,
2013-10-12 01:24:00,52.1,49.3,30.19,NNE,21,0.0,2.0,90,0.00,SKC,OVC,0.00,WeatherDisplay:10.37,2013-10-12 05:24:00,
2013-10-12 01:29:00,51.9,49.1,30.19,NE,51,0.0,0.0,90,0.00,SKC,OVC,0.00,WeatherDisplay:10.37,2013-10-12 05:29:00,
2013-10-12 01:34:00,51.9,49.1,30.19,NE,42,0.0,1.0,90,0.00,SKC,OVC,0.00,WeatherDisplay:10.37,2013-10-12 05:34:00,
2013-10-12 01:39:00,52.0,49.4,30.19,NE,38,0.0,2.0,91,0.00,SKC,OVC,0.00,WeatherDisplay:10.37,2013-10-12 05:39:00,
2013-10-12 01:44:00,51.8,49.0,30.19,NE,44,0.0,0.0,90,0.00,SKC,OVC,0.00,WeatherDisplay:10.37,2013-10-12 05:44:00,
2013-10-12 01:49:00,51.6,48.7,30.19,NE,44,0.0,0.0,90,0.00,SKC,OVC,0.00,WeatherDisplay:10.37,2013-10-12 05:49:00,
2013-10-12 01:54:00,51.6,49.1,30.19,NE,51,0.0,2.0,91,0.00,SKC,OVC,0.00,WeatherDisplay:10.37,2013-10-12 05:54:00,
2013-10-12 01:59:00,51.6,48.8,30.19,NNE,25,0.0,1.0,90,0.00,SKC,OVC,0.00,WeatherDisplay:10.37,2013-10-12 05:59:00,
2013-10-12 02:04:00,51.3,48.5,30.19,NNE,14,0.0,2.0,90,0.00,SKC,OVC,0.00,WeatherDisplay:10.37,2013-10-12 06:04:00,
2013-10-12 02:09:00,51.2,48.6,30.19,ENE,63,0.0,1.0,91,0.00,SKC,OVC,0.00,WeatherDisplay:10.37,2013-10-12 06:09:00,
2013-10-12 02:14:00,50.8,48.3,30.19,NE,35,0.0,3.0,91,0.00,SKC,OVC,0.00,WeatherDisplay:10.37,2013-10-12 06:14:00,
2013-10-12 02:19:00,50.5,48.3,30.19,NNE,24,0.0,0.0,92,0.00,SKC,OVC,0.00,WeatherDisplay:10.37,2013-10-12 06:19:00,
2013-10-12 02:24:00,50.7,48.5,30.19,NNE,24,0.0,0.0,92,0.00,SKC,OVC,0.00,WeatherDisplay:10.37,2013-10-12 06:24:00,
2013-10-12 02:29:00,50.6,48.4,30.19,NNE,26,0.0,2.0,92,0.00,SKC,OVC,0.00,WeatherDisplay:10.37,2013-10-12 06:29:00,
2013-10-12 02:34:00,50.7,48.4,30.19,NNE,15,0.0,0.0,92,0.00,SKC,OVC,0.00,WeatherDisplay:10.37,2013-10-12 06:34:00,
2013-10-12 02:39:00,50.8,48.6,30.19,NNE,13,0.0,0.0,92,0.00,SKC,OVC,0.00,WeatherDisplay:10.37,2013-10-12 06:39:00,
2013-10-12 02:44:00,50.7,48.4,30.19,NNE,17,0.0,0.0,92,0.00,SKC,OVC,0.00,WeatherDisplay:10.37,2013-10-12 06:44:00,
2013-10-12 02:49:00,50.6,48.4,30.19,NNE,23,0.0,0.0,92,0.00,SKC,OVC,0.00,WeatherDisplay:10.37,2013-10-12 06:49:00,
2013-10-12 02:54:00,50.5,48.0,30.19,NNE,22,0.0,2.0,91,0.00,SKC,OVC,0.00,WeatherDisplay:10.37,2013-10-12 06:54:00,
2013-10-12 02:59:00,50.1,47.9,30.19,North,5,0.0,0.0,92,0.00,SKC,OVC,0.00,WeatherDisplay:10.37,2013-10-12 06:59:00,
2013-10-12 03:04:00,49.7,47.5,30.19,North,5,0.0,0.0,92,0.00,SKC,OVC,0.00,WeatherDisplay:10.37,2013-10-12 07:04:00,
2013-10-12 03:09:00,49.7,47.8,30.19,North,5,0.0,1.0,93,0.00,SKC,OVC,0.00,WeatherDisplay:10.37,2013-10-12 07:09:00,
2013-10-12 03:14:00,50.1,48.2,30.19,North,5,0.0,1.0,93,0.00,SKC,OVC,0.00,WeatherDisplay:10.37,2013-10-12 07:14:00,
2013-10-12 03:19:00,49.9,47.7,30.19,North,5,0.0,0.0,92,0.00,SKC,OVC,0.00,WeatherDisplay:10.37,2013-10-12 07:19:00,
2013-10-12 03:24:00,49.5,47.3,30.19,North,5,0.0,0.0,92,0.00,SKC,OVC,0.00,WeatherDisplay:10.37,2013-10-12 07:24:00,
2013-10-12 03:29:00,49.3,47.3,30.19,North,5,0.0,0.0,93,0.00,SKC,OVC,0.00,WeatherDisplay:10.37,2013-10-12 07:29:00,
2013-10-12 03:34:00,48.8,46.9,30.19,North,5,0.0,0.0,93,0.00,SKC,OVC,0.00,WeatherDisplay:10.37,2013-10-12 07:34:00,
2013-10-12 03:39:00,48.4,46.5,30.19,North,5,0.0,0.0,93,0.00,SKC,OVC,0.00,WeatherDisplay:10.37,2013-10-12 07:39:00,
2013-10-12 03:44:00,48.1,46.5,30.19,North,5,0.0,0.0,94,0.00,SKC,OVC,0.00,WeatherDisplay:10.37,2013-10-12 07:44:00,
2013-10-12 03:49:00,48.0,46.4,30.19,North,5,0.0,1.0,94,0.00,SKC,OVC,0.00,WeatherDisplay:10.37,2013-10-12 07:49:00,
2013-10-12 03:54:00,48.2,46.9,30.19,North,5,0.0,0.0,95,0.00,SKC,OVC,0.00,WeatherDisplay:10.37,2013-10-12 07:54:00,
2013-10-12 03:59:00,48.2,46.6,30.19,North,5,0.0,0.0,94,0.00,SKC,OVC,0.00,WeatherDisplay:10.37,2013-10-12 07:59:00,
2013-10-12 04:04:00,48.4,47.0,30.20,North,5,0.0,0.0,95,0.00,SKC,OVC,0.00,WeatherDisplay:10.37,2013-10-12 08:04:00,
2013-10-12 04:09:00,48.9,47.5,30.20,North,11,0.0,0.0,95,0.00,SKC,OVC,0.00,WeatherDisplay:10.37,2013-10-12 08:09:00,
2013-10-12 04:14:00,48.9,47.2,30.20,NNE,17,0.0,0.0,94,0.00,SKC,OVC,0.00,WeatherDisplay:10.37,2013-10-12 08:14:00,
2013-10-12 04:19:00,48.9,47.2,30.20,NNE,17,0.0,0.0,94,0.00,SKC,OVC,0.00,WeatherDisplay:10.37,2013-10-12 08:19:00,
2013-10-12 04:24:00,48.7,46.8,30.20,NNE,17,0.0,0.0,93,0.00,SKC,OVC,0.00,WeatherDisplay:10.37,2013-10-12 08:24:00,
2013-10-12 04:29:00,48.5,46.9,30.21,NNE,17,0.0,0.0,94,0.00,SKC,OVC,0.00,WeatherDisplay:10.37,2013-10-12 08:29:00,
2013-10-12 04:34:00,48.1,46.2,30.21,NNE,17,0.0,0.0,93,0.00,SKC,OVC,0.00,WeatherDisplay:10.37,2013-10-12 08:34:00,
2013-10-12 04:39:00,47.8,46.1,30.21,NNE,17,0.0,0.0,94,0.00,SKC,OVC,0.00,WeatherDisplay:10.37,2013-10-12 08:39:00,
2013-10-12 04:44:00,48.0,46.6,30.20,NNE,17,0.0,0.0,95,0.00,SKC,OVC,0.00,WeatherDisplay:10.37,2013-10-12 08:44:00,
2013-10-12 04:49:00,47.9,46.3,30.21,NNE,17,0.0,0.0,94,0.00,SKC,OVC,0.00,WeatherDisplay:10.37,2013-10-12 08:49:00,
2013-10-12 04:54:00,47.8,46.1,30.21,NNE,17,0.0,0.0,94,0.00,SKC,OVC,0.00,WeatherDisplay:10.37,2013-10-12 08:54:00,
2013-10-12 04:59:00,47.5,45.9,30.21,NNE,17,0.0,0.0,94,0.00,SKC,OVC,0.00,WeatherDisplay:10.37,2013-10-12 08:59:00,
2013-10-12 05:04:00,47.7,46.4,30.21,NNE,16,0.0,2.0,95,0.00,SKC,OVC,0.00,WeatherDisplay:10.37,2013-10-12 09:04:00,
2013-10-12 05:09:00,48.2,46.8,30.21,NNE,15,0.0,0.0,95,0.00,SKC,OVC,0.00,WeatherDisplay:10.37,2013-10-12 09:09:00,
2013-10-12 05:14:00,48.5,47.1,30.21,NNE,29,0.0,1.0,95,0.00,SKC,OVC,0.00,WeatherDisplay:10.37,2013-10-12 09:14:00,
2013-10-12 05:19:00,48.6,47.0,30.22,NE,46,0.0,0.0,94,0.00,SKC,OVC,0.00,WeatherDisplay:10.37,2013-10-12 09:19:00,
2013-10-12 05:24:00,48.5,46.9,30.22,NE,46,0.0,0.0,94,0.00,SKC,OVC,0.00,WeatherDisplay:10.37,2013-10-12 09:24:00,
2013-10-12 05:29:00,48.4,46.8,30.22,NE,46,0.0,0.0,94,0.00,SKC,OVC,0.00,WeatherDisplay:10.37,2013-10-12 09:29:00,
2013-10-12 05:34:00,48.4,46.7,30.22,NE,46,0.0,0.0,94,0.00,SKC,OVC,0.00,WeatherDisplay:10.37,2013-10-12 09:34:00,
2013-10-12 05:39:00,48.4,46.7,30.22,NE,45,0.0,0.0,94,0.00,SKC,OVC,0.00,WeatherDisplay:10.37,2013-10-12 09:39:00,
2013-10-12 05:44:00,48.5,46.9,30.22,NE,42,0.0,0.0,94,0.00,SKC,OVC,0.00,WeatherDisplay:10.37,2013-10-12 09:44:00,
2013-10-12 05:49:00,48.4,46.8,30.22,NE,41,0.0,0.0,94,0.00,SKC,OVC,0.00,WeatherDisplay:10.37,2013-10-12 09:49:00,
2013-10-12 05:54:00,48.2,46.6,30.22,NE,41,0.0,0.0,94,0.00,SKC,OVC,0.00,WeatherDisplay:10.37,2013-10-12 09:54:00,
2013-10-12 05:59:00,48.0,46.4,30.23,NE,41,0.0,0.0,94,0.00,SKC,OVC,0.00,WeatherDisplay:10.37,2013-10-12 09:59:00,
2013-10-12 06:04:00,47.7,46.1,30.23,NE,41,0.0,0.0,94,0.00,SKC,OVC,0.00,WeatherDisplay:10.37,2013-10-12 10:04:00,
2013-10-12 06:09:00,47.6,46.0,30.23,NE,41,0.0,0.0,94,0.00,SKC,OVC,0.00,WeatherDisplay:10.37,2013-10-12 10:09:00,
2013-10-12 06:14:00,47.5,46.2,30.23,NE,41,0.0,1.0,95,0.00,SKC,OVC,0.00,WeatherDisplay:10.37,2013-10-12 10:14:00,
2013-10-12 06:19:00,47.6,46.2,30.23,NE,42,0.0,0.0,95,0.00,SKC,OVC,0.00,WeatherDisplay:10.37,2013-10-12 10:19:00,
2013-10-12 06:24:00,47.4,46.0,30.23,NE,42,0.0,0.0,95,0.00,SKC,OVC,0.00,WeatherDisplay:10.37,2013-10-12 10:24:00,
2013-10-12 06:29:00,47.3,45.9,30.23,NE,41,0.0,0.0,95,0.00,SKC,OVC,0.00,WeatherDisplay:10.37,2013-10-12 10:29:00,
2013-10-12 06:34:00,47.1,45.7,30.23,NE,42,0.0,0.0,95,0.00,SKC,OVC,0.00,WeatherDisplay:10.37,2013-10-12 10:34:00,
2013-10-12 06:39:00,47.2,45.8,30.23,NE,41,0.0,0.0,95,0.00,SKC,OVC,0.00,WeatherDisplay:10.37,2013-10-12 10:39:00,
2013-10-12 06:44:00,47.1,45.7,30.23,NE,43,0.0,1.0,95,0.00,SKC,OVC,0.00,WeatherDisplay:10.37,2013-10-12 10:44:00,
2013-10-12 06:49:00,47.0,45.7,30.24,NE,45,0.0,0.0,95,0.00,SKC,OVC,0.00,WeatherDisplay:10.37,2013-10-12 10:49:00,
2013-10-12 06:54:00,46.9,45.6,30.24,NE,45,0.0,0.0,95,0.00,SKC,OVC,0.00,WeatherDisplay:10.37,2013-10-12 10:54:00,
2013-10-12 06:59:00,46.6,45.2,30.24,NE,45,0.0,0.0,95,0.00,SKC,OVC,0.00,WeatherDisplay:10.37,2013-10-12 10:59:00,
2013-10-12 07:04:00,46.2,44.8,30.24,NE,45,0.0,0.0,95,0.00,SKC,OVC,0.00,WeatherDisplay:10.37,2013-10-12 11:04:00,
2013-10-12 07:09:00,45.9,44.6,30.24,NE,45,0.0,0.0,95,0.00,SKC,OVC,0.00,WeatherDisplay:10.37,2013-10-12 11:09:00,
2013-10-12 07:14:00,45.9,44.5,30.25,NE,45,0.0,0.0,95,0.00,FEW,OVC,0.00,WeatherDisplay:10.37,2013-10-12 11:14:00,
2013-10-12 07:19:00,45.9,44.8,30.25,NE,45,0.0,0.0,96,0.00,FEW,OVC,0.00,WeatherDisplay:10.37,2013-10-12 11:19:00,
2013-10-12 07:24:00,45.9,44.8,30.25,NE,45,0.0,0.0,96,0.00,FEW,OVC,0.00,WeatherDisplay:10.37,2013-10-12 11:24:00,
2013-10-12 07:29:00,45.8,44.7,30.25,NE,45,0.0,0.0,96,0.00,FEW,OVC,0.00,WeatherDisplay:10.37,2013-10-12 11:29:00,
2013-10-12 07:34:00,45.7,44.7,30.25,NE,45,0.0,0.0,96,0.00,FEW,OVC,0.00,WeatherDisplay:10.37,2013-10-12 11:34:00,
2013-10-12 07:39:00,45.9,44.8,30.25,NE,45,0.0,0.0,96,0.00,FEW,OVC,0.00,WeatherDisplay:10.37,2013-10-12 11:39:00,
2013-10-12 07:44:00,45.8,44.7,30.25,NE,45,0.0,0.0,96,0.00,FEW,OVC,0.00,WeatherDisplay:10.37,2013-10-12 11:44:00,
2013-10-12 07:49:00,46.1,45.0,30.26,NE,45,0.0,0.0,96,0.00,FEW,OVC,0.00,WeatherDisplay:10.37,2013-10-12 11:49:00,
2013-10-12 07:54:00,46.4,45.3,30.26,NE,45,0.0,0.0,96,0.00,FEW,OVC,0.00,WeatherDisplay:10.37,2013-10-12 11:54:00,
2013-10-12 07:59:00,46.5,45.4,30.26,NE,45,0.0,0.0,96,0.00,FEW,OVC,0.00,WeatherDisplay:10.37,2013-10-12 11:59:00,
2013-10-12 08:04:00,47.2,46.6,30.26,NE,45,0.0,0.0,98,0.00,FEW,OVC,0.00,WeatherDisplay:10.37,2013-10-12 12:04:00,
2013-10-12 08:09:00,48.0,48.0,30.26,NE,43,0.0,3.0,100,0.00,FEW,OVC,0.00,WeatherDisplay:10.37,2013-10-12 12:09:00,
2013-10-12 08:14:00,48.7,47.9,30.26,NNE,33,0.0,1.0,97,0.00,FEW,OVC,0.00,WeatherDisplay:10.37,2013-10-12 12:14:00,
2013-10-12 08:19:00,49.4,48.3,30.26,NE,35,0.0,3.0,96,0.00,FEW,OVC,0.00,WeatherDisplay:10.37,2013-10-12 12:19:00,
2013-10-12 08:24:00,49.8,48.4,30.26,NNE,30,0.0,1.0,95,0.00,FEW,OVC,0.00,WeatherDisplay:10.37,2013-10-12 12:24:00,
2013-10-12 08:29:00,50.3,48.7,30.26,ENE,78,0.0,4.0,94,0.00,FEW,OVC,0.00,WeatherDisplay:10.37,2013-10-12 12:29:00,
2013-10-12 08:34:00,50.9,48.6,30.26,East,86,0.0,1.0,92,0.00,FEW,OVC,0.00,WeatherDisplay:10.37,2013-10-12 12:34:00,
2013-10-12 08:39:00,51.2,48.9,30.27,ENE,59,1.0,3.0,92,0.00,FEW,OVC,0.00,WeatherDisplay:10.37,2013-10-12 12:39:00,
2013-10-12 08:44:00,51.6,49.1,30.26,NE,54,0.0,5.0,91,0.00,FEW,OVC,0.00,WeatherDisplay:10.37,2013-10-12 12:44:00,
2013-10-12 08:49:00,51.9,49.0,30.26,East,80,1.0,3.0,90,0.00,FEW,OVC,0.00,WeatherDisplay:10.37,2013-10-12 12:49:00,
2013-10-12 08:54:00,52.4,49.2,30.26,NE,50,0.0,5.0,89,0.00,FEW,OVC,0.00,WeatherDisplay:10.37,2013-10-12 12:54:00,
2013-10-12 08:59:00,52.9,49.4,30.26,NE,43,0.0,7.0,88,0.00,FEW,OVC,0.00,WeatherDisplay:10.37,2013-10-12 12:59:00,
2013-10-12 09:04:00,53.2,49.4,30.26,NE,43,0.0,3.0,87,0.00,FEW,OVC,0.00,WeatherDisplay:10.37,2013-10-12 13:04:00,
2013-10-12 09:09:00,53.6,49.9,30.26,NE,34,0.0,2.0,87,0.00,FEW,OVC,0.00,WeatherDisplay:10.37,2013-10-12 13:09:00,
2013-10-12 09:14:00,54.1,50.0,30.26,ENE,58,1.0,3.0,86,0.00,FEW,OVC,0.00,WeatherDisplay:10.37,2013-10-12 13:14:00,
2013-10-12 09:19:00,54.5,50.1,30.26,ENE,70,1.0,6.0,85,0.00,FEW,OVC,0.00,WeatherDisplay:10.37,2013-10-12 13:19:00,
2013-10-12 09:24:00,54.7,50.0,30.26,ENE,77,2.0,8.0,84,0.00,FEW,OVC,0.00,WeatherDisplay:10.37,2013-10-12 13:24:00,
2013-10-12 09:29:00,55.1,50.3,30.26,ENE,72,1.0,5.0,84,0.00,FEW,OVC,0.00,WeatherDisplay:10.37,2013-10-12 13:29:00,
2013-10-12 09:34:00,55.6,50.8,30.26,ENE,65,0.0,3.0,84,0.00,FEW,OVC,0.00,WeatherDisplay:10.37,2013-10-12 13:34:00,
2013-10-12 09:39:00,55.8,50.7,30.26,NE,37,1.0,6.0,83,0.00,FEW,OVC,0.00,WeatherDisplay:10.37,2013-10-12 13:39:00,
2013-10-12 09:44:00,56.1,51.0,30.27,ENE,66,1.0,5.0,83,0.00,FEW,OVC,0.00,WeatherDisplay:10.37,2013-10-12 13:44:00,
2013-10-12 09:49:00,56.5,51.0,30.27,East,81,1.0,6.0,82,0.00,FEW,OVC,0.00,WeatherDisplay:10.37,2013-10-12 13:49:00,
2013-10-12 09:54:00,56.8,51.0,30.27,ESE,102,0.0,9.0,81,0.00,FEW,OVC,0.00,WeatherDisplay:10.37,2013-10-12 13:54:00,
2013-10-12 09:59:00,57.1,51.0,30.27,East,93,1.0,5.0,80,0.00,FEW,OVC,0.00,WeatherDisplay:10.37,2013-10-12 13:59:00,
2013-10-12 10:04:00,57.3,51.2,30.27,East,97,1.0,8.0,80,0.00,FEW,OVC,0.00,WeatherDisplay:10.37,2013-10-12 14:04:00,
2013-10-12 10:09:00,57.3,51.2,30.27,SE,125,0.0,7.0,80,0.00,FEW,OVC,0.00,WeatherDisplay:10.37,2013-10-12 14:09:00,
2013-10-12 10:19:00,57.8,51.3,30.27,East,100,0.0,7.0,79,0.00,SKC,OVC,0.00,WeatherDisplay:10.37,2013-10-12 14:19:00,
2013-10-12 10:24:00,58.3,51.5,30.27,East,94,0.0,3.0,78,0.00,SKC,OVC,0.00,WeatherDisplay:10.37,2013-10-12 14:24:00,
2013-10-12 10:29:00,58.9,51.7,30.27,East,86,0.0,2.0,77,0.00,SKC,OVC,0.00,WeatherDisplay:10.37,2013-10-12 14:29:00,
2013-10-12 10:34:00,59.1,51.9,30.27,East,85,0.0,5.0,77,0.00,SKC,OVC,0.00,WeatherDisplay:10.37,2013-10-12 14:34:00,
2013-10-12 10:39:00,59.3,52.1,30.27,ENE,76,0.0,2.0,77,0.00,SKC,OVC,0.00,WeatherDisplay:10.37,2013-10-12 14:39:00,
2013-10-12 10:44:00,59.3,51.7,30.27,ENE,67,1.0,5.0,76,0.00,SKC,OVC,0.00,WeatherDisplay:10.37,2013-10-12 14:44:00,
2013-10-12 10:49:00,59.2,51.6,30.27,East,83,0.0,5.0,76,0.00,SKC,OVC,0.00,WeatherDisplay:10.37,2013-10-12 14:49:00,
2013-10-12 10:54:00,59.7,52.2,30.27,East,89,1.0,2.0,76,0.00,SKC,OVC,0.00,WeatherDisplay:10.37,2013-10-12 14:54:00,
2013-10-12 10:59:00,59.8,52.2,30.27,ENE,71,0.0,2.0,76,0.00,SKC,OVC,0.00,WeatherDisplay:10.37,2013-10-12 14:59:00,
2013-10-12 11:04:00,60.2,52.6,30.27,East,92,0.0,3.0,76,0.00,SKC,OVC,0.00,WeatherDisplay:10.37,2013-10-12 15:04:00,
2013-10-12 11:09:00,60.4,52.4,30.27,East,86,0.0,2.0,75,0.00,SKC,OVC,0.00,WeatherDisplay:10.37,2013-10-12 15:09:00,
2013-10-12 11:14:00,60.4,52.8,30.27,NNE,33,0.0,3.0,76,0.00,SKC,OVC,0.00,WeatherDisplay:10.37,2013-10-12 15:14:00,
2013-10-12 11:19:00,60.9,52.9,30.27,ESE,119,0.0,3.0,75,0.00,SKC,OVC,0.00,WeatherDisplay:10.37,2013-10-12 15:19:00,
2013-10-12 11:24:00,61.3,53.0,30.27,East,84,0.0,5.0,74,0.00,SKC,OVC,0.00,WeatherDisplay:10.37,2013-10-12 15:24:00,
2013-10-12 11:29:00,61.6,52.9,30.27,ENE,61,0.0,3.0,73,0.00,SKC,OVC,0.00,WeatherDisplay:10.37,2013-10-12 15:29:00,
2013-10-12 11:34:00,61.6,52.9,30.27,East,96,0.0,3.0,73,0.00,SKC,OVC,0.00,WeatherDisplay:10.37,2013-10-12 15:34:00,
2013-10-12 11:39:00,61.7,52.5,30.27,ESE,103,1.0,3.0,72,0.00,SKC,OVC,0.00,WeatherDisplay:10.37,2013-10-12 15:39:00,
2013-10-12 11:44:00,61.6,52.9,30.27,East,80,0.0,2.0,73,0.00,SKC,OVC,0.00,WeatherDisplay:10.37,2013-10-12 15:44:00,
2013-10-12 11:49:00,61.8,53.1,30.27,East,95,0.0,2.0,73,0.00,SKC,OVC,0.00,WeatherDisplay:10.37,2013-10-12 15:49:00,
2013-10-12 11:54:00,61.8,53.1,30.27,ESE,120,0.0,2.0,73,0.00,SKC,OVC,0.00,WeatherDisplay:10.37,2013-10-12 15:54:00,
2013-10-12 11:59:00,62.1,53.3,30.27,ESE,103,1.0,5.0,73,0.00,SKC,OVC,0.00,WeatherDisplay:10.37,2013-10-12 15:59:00,
2013-10-12 12:04:00,62.0,52.9,30.27,East,95,0.0,4.0,72,0.00,SKC,OVC,0.00,WeatherDisplay:10.37,2013-10-12 16:04:00,
2013-10-12 12:09:00,62.6,53.0,30.27,East,88,1.0,7.0,71,0.00,SKC,OVC,0.00,WeatherDisplay:10.37,2013-10-12 16:09:00,
2013-10-12 12:14:00,62.5,53.3,30.27,East,96,0.0,1.0,72,0.00,SKC,OVC,0.00,WeatherDisplay:10.37,2013-10-12 16:14:00,
2013-10-12 12:19:00,62.7,53.1,30.27,ESE,113,1.0,5.0,71,0.00,SKC,OVC,0.00,WeatherDisplay:10.37,2013-10-12 16:19:00,
2013-10-12 12:25:00,62.9,53.7,30.27,ESE,114,0.0,4.0,72,0.00,SKC,OVC,0.00,WeatherDisplay:10.37,2013-10-12 16:25:00,
2013-10-12 12:34:00,63.3,53.3,30.27,East,81,0.0,3.0,70,0.00,SKC,OVC,0.00,WeatherDisplay:10.37,2013-10-12 16:34:00,
2013-10-12 12:39:00,63.3,53.3,30.27,East,86,0.0,5.0,70,0.00,SKC,OVC,0.00,WeatherDisplay:10.37,2013-10-12 16:39:00,
2013-10-12 12:44:00,63.5,53.9,30.26,East,82,0.0,4.0,71,0.00,SKC,OVC,0.00,WeatherDisplay:10.37,2013-10-12 16:44:00,
2013-10-12 12:49:00,63.9,53.6,30.26,East,91,1.0,3.0,69,0.00,SKC,OVC,0.00,WeatherDisplay:10.37,2013-10-12 16:49:00,
2013-10-12 12:54:00,63.9,53.5,30.26,ENE,76,0.0,4.0,69,0.00,SKC,OVC,0.00,WeatherDisplay:10.37,2013-10-12 16:54:00,
2013-10-12 12:59:00,64.0,54.0,30.26,NE,37,1.0,3.0,70,0.00,SKC,OVC,0.00,WeatherDisplay:10.37,2013-10-12 16:59:00,
2013-10-12 13:04:00,64.3,53.9,30.25,North,1,1.0,3.0,69,0.00,SKC,OVC,0.00,WeatherDisplay:10.37,2013-10-12 17:04:00,
2013-10-12 13:09:00,64.9,54.4,30.25,NNE,23,0.0,2.0,69,0.00,SKC,OVC,0.00,WeatherDisplay:10.37,2013-10-12 17:09:00,
2013-10-12 13:14:00,64.9,54.5,30.25,ENE,64,0.0,5.0,69,0.00,SKC,OVC,0.00,WeatherDisplay:10.37,2013-10-12 17:14:00,
2013-10-12 13:19:00,64.9,53.7,30.25,ENE,78,0.0,7.0,67,0.00,SKC,OVC,0.00,WeatherDisplay:10.37,2013-10-12 17:19:00,
2013-10-12 13:24:00,64.8,54.4,30.25,East,95,0.0,3.0,69,0.00,SKC,OVC,0.00,WeatherDisplay:10.37,2013-10-12 17:24:00,
2013-10-12 13:29:00,64.9,54.1,30.25,ESE,113,0.0,5.0,68,0.00,SKC,OVC,0.00,WeatherDisplay:10.37,2013-10-12 17:29:00,
2013-10-12 13:34:00,65.6,54.7,30.25,ESE,109,1.0,5.0,68,0.00,SKC,OVC,0.00,WeatherDisplay:10.37,2013-10-12 17:34:00,
2013-10-12 13:39:00,65.8,53.7,30.25,ESE,106,0.0,3.0,65,0.00,SKC,OVC,0.00,WeatherDisplay:10.37,2013-10-12 17:39:00,
2013-10-12 13:44:00,65.6,53.5,30.25,East,92,0.0,3.0,65,0.00,SKC,OVC,0.00,WeatherDisplay:10.37,2013-10-12 17:44:00,
2013-10-12 13:49:00,65.3,53.6,30.24,East,83,1.0,5.0,66,0.00,SKC,OVC,0.00,WeatherDisplay:10.37,2013-10-12 17:49:00,
2013-10-12 13:54:00,65.5,53.4,30.24,ESE,106,1.0,6.0,65,0.00,SKC,OVC,0.00,WeatherDisplay:10.37,2013-10-12 17:54:00,
2013-10-12 13:59:00,65.9,53.8,30.24,ESE,115,0.0,1.0,65,0.00,SKC,OVC,0.00,WeatherDisplay:10.37,2013-10-12 17:59:00,
2013-10-12 14:04:00,66.2,54.5,30.24,East,99,0.0,3.0,66,0.00,SKC,OVC,0.00,WeatherDisplay:10.37,2013-10-12 18:04:00,
2013-10-12 14:09:00,66.1,53.6,30.24,ENE,74,0.0,3.0,64,0.00,SKC,OVC,0.00,WeatherDisplay:10.37,2013-10-12 18:09:00,
2013-10-12 14:14:00,66.2,54.5,30.24,ENE,76,0.0,2.0,66,0.00,SKC,OVC,0.00,WeatherDisplay:10.37,2013-10-12 18:14:00,
2013-10-12 14:19:00,66.4,54.3,30.24,East,98,0.0,3.0,65,0.00,SKC,OVC,0.00,WeatherDisplay:10.37,2013-10-12 18:19:00,
2013-10-12 14:24:00,67.0,54.4,30.24,East,94,0.0,5.0,64,0.00,SKC,OVC,0.00,WeatherDisplay:10.37,2013-10-12 18:24:00,
2013-10-12 14:29:00,67.2,54.2,30.24,SE,136,0.0,1.0,63,0.00,SKC,OVC,0.00,WeatherDisplay:10.37,2013-10-12 18:29:00,
2013-10-12 14:34:00,67.2,53.7,30.24,South,176,0.0,1.0,62,0.00,SKC,OVC,0.00,WeatherDisplay:10.37,2013-10-12 18:34:00,
2013-10-12 14:44:00,67.1,53.6,30.24,SE,128,0.0,2.0,62,0.00,SKC,OVC,0.00,WeatherDisplay:10.37,2013-10-12 18:44:00,
2013-10-12 14:49:00,67.2,53.7,30.24,ESE,120,0.0,3.0,62,0.00,SKC,OVC,0.00,WeatherDisplay:10.37,2013-10-12 18:49:00,
2013-10-12 14:54:00,67.2,54.2,30.24,East,98,0.0,4.0,63,0.00,SKC,OVC,0.00,WeatherDisplay:10.37,2013-10-12 18:54:00,
2013-10-12 14:59:00,67.0,53.5,30.24,ESE,116,0.0,3.0,62,0.00,SKC,OVC,0.00,WeatherDisplay:10.37,2013-10-12 18:59:00,
2013-10-12 15:04:00,67.2,53.7,30.24,ESE,113,0.0,1.0,62,0.00,SKC,OVC,0.00,WeatherDisplay:10.37,2013-10-12 19:04:00,
2013-10-12 15:09:00,67.2,54.6,30.24,SE,128,0.0,2.0,64,0.00,SKC,OVC,0.00,WeatherDisplay:10.37,2013-10-12 19:09:00,
2013-10-12 15:14:00,67.3,54.3,30.24,SE,141,1.0,4.0,63,0.00,FEW,OVC,0.00,WeatherDisplay:10.37,2013-10-12 19:14:00,
2013-10-12 15:19:00,67.3,54.7,30.24,ESE,121,0.0,2.0,64,0.00,FEW,OVC,0.00,WeatherDisplay:10.37,2013-10-12 19:19:00,
2013-10-12 15:24:00,67.6,54.9,30.24,ESE,102,0.0,4.0,64,0.00,FEW,OVC,0.00,WeatherDisplay:10.37,2013-10-12 19:24:00,
2013-10-12 15:29:00,67.6,54.1,30.24,East,100,0.0,3.0,62,0.00,FEW,OVC,0.00,WeatherDisplay:10.37,2013-10-12 19:29:00,
2013-10-12 15:34:00,67.9,54.0,30.24,East,98,1.0,3.0,61,0.00,FEW,OVC,0.00,WeatherDisplay:10.37,2013-10-12 19:34:00,
2013-10-12 15:39:00,67.7,54.2,30.24,ESE,117,1.0,3.0,62,0.00,FEW,OVC,0.00,WeatherDisplay:10.37,2013-10-12 19:39:00,
2013-10-12 15:44:00,68.0,54.5,30.24,ESE,114,0.0,2.0,62,0.00,FEW,OVC,0.00,WeatherDisplay:10.37,2013-10-12 19:44:00,
2013-10-12 15:49:00,67.7,53.8,30.24,SE,134,0.0,2.0,61,0.00,FEW,OVC,0.00,WeatherDisplay:10.37,2013-10-12 19:49:00,
2013-10-12 15:54:00,67.6,53.7,30.23,SE,142,0.0,5.0,61,0.00,FEW,OVC,0.00,WeatherDisplay:10.37,2013-10-12 19:54:00,
2013-10-12 15:59:00,67.6,54.1,30.23,SE,134,1.0,3.0,62,0.00,FEW,OVC,0.00,WeatherDisplay:10.37,2013-10-12 19:59:00,
2013-10-12 16:04:00,67.7,54.2,30.23,East,99,0.0,2.0,62,0.00,FEW,OVC,0.00,WeatherDisplay:10.37,2013-10-12 20:04:00,
2013-10-12 16:09:00,67.6,54.1,30.23,East,80,0.0,2.0,62,0.00,FEW,OVC,0.00,WeatherDisplay:10.37,2013-10-12 20:09:00,
2013-10-12 16:14:00,67.5,54.5,30.23,ESE,116,0.0,3.0,63,0.00,FEW,OVC,0.00,WeatherDisplay:10.37,2013-10-12 20:14:00,
2013-10-12 16:19:00,67.4,54.4,30.23,SE,127,0.0,4.0,63,0.00,FEW,OVC,0.00,WeatherDisplay:10.37,2013-10-12 20:19:00,
2013-10-12 16:24:00,67.3,53.8,30.23,ESE,106,0.0,4.0,62,0.00,FEW,OVC,0.00,WeatherDisplay:10.37,2013-10-12 20:24:00,
2013-10-12 16:29:00,67.3,53.8,30.23,East,90,1.0,3.0,62,0.00,FEW,OVC,0.00,WeatherDisplay:10.37,2013-10-12 20:29:00,
2013-10-12 16:34:00,67.2,53.8,30.23,East,98,0.0,3.0,62,0.00,FEW,OVC,0.00,WeatherDisplay:10.37,2013-10-12 20:34:00,
2013-10-12 16:39:00,67.1,54.1,30.23,ESE,112,0.0,1.0,63,0.00,FEW,OVC,0.00,WeatherDisplay:10.37,2013-10-12 20:39:00,
2013-10-12 16:44:00,67.1,54.1,30.23,ESE,112,0.0,1.0,63,0.00,FEW,OVC,0.00,WeatherDisplay:10.37,2013-10-12 20:44:00,
2013-10-12 16:49:00,66.9,54.3,30.23,ESE,103,0.0,1.0,64,0.00,FEW,OVC,0.00,WeatherDisplay:10.37,2013-10-12 20:49:00,
2013-10-12 16:54:00,66.5,54.4,30.23,ESE,107,0.0,5.0,65,0.00,FEW,OVC,0.00,WeatherDisplay:10.37,2013-10-12 20:54:00,
2013-10-12 16:59:00,66.4,54.7,30.23,SE,131,0.0,5.0,66,0.00,FEW,OVC,0.00,WeatherDisplay:10.37,2013-10-12 20:59:00,
2013-10-12 17:04:00,66.3,54.2,30.23,South,174,0.0,0.0,65,0.00,FEW,OVC,0.00,WeatherDisplay:10.37,2013-10-12 21:04:00,
2013-10-12 17:09:00,66.1,54.0,30.23,SSE,164,0.0,1.0,65,0.00,FEW,OVC,0.00,WeatherDisplay:10.37,2013-10-12 21:09:00,
2013-10-12 17:14:00,65.9,53.8,30.23,SE,139,0.0,2.0,65,0.00,FEW,OVC,0.00,WeatherDisplay:10.37,2013-10-12 21:14:00,
2013-10-12 17:19:00,65.6,54.4,30.23,South,182,0.0,2.0,67,0.00,FEW,OVC,0.00,WeatherDisplay:10.37,2013-10-12 21:19:00,
2013-10-12 17:24:00,65.5,53.8,30.23,SSW,192,0.0,0.0,66,0.00,FEW,OVC,0.00,WeatherDisplay:10.37,2013-10-12 21:24:00,
2013-10-12 17:29:00,65.0,53.8,30.23,South,188,0.0,0.0,67,0.00,FEW,OVC,0.00,WeatherDisplay:10.37,2013-10-12 21:29:00,
2013-10-12 17:34:00,64.7,54.3,30.23,SSE,168,0.0,0.0,69,0.00,FEW,OVC,0.00,WeatherDisplay:10.37,2013-10-12 21:34:00,
2013-10-12 17:39:00,64.0,54.4,30.23,SSE,150,0.0,0.0,71,0.00,FEW,OVC,0.00,WeatherDisplay:10.37,2013-10-12 21:39:00,
2013-10-12 17:44:00,63.3,54.5,30.23,East,95,0.0,0.0,73,0.00,FEW,OVC,0.00,WeatherDisplay:10.37,2013-10-12 21:44:00,
2013-10-12 17:49:00,62.7,54.3,30.23,ENE,63,0.0,0.0,74,0.00,FEW,OVC,0.00,WeatherDisplay:10.37,2013-10-12 21:49:00,
2013-10-12 17:54:00,62.1,54.1,30.23,ENE,63,0.0,0.0,75,0.00,FEW,OVC,0.00,WeatherDisplay:10.37,2013-10-12 21:54:00,
2013-10-12 17:59:00,61.5,54.5,30.23,ENE,63,0.0,0.0,78,0.00,FEW,OVC,0.00,WeatherDisplay:10.37,2013-10-12 21:59:00,
2013-10-12 18:04:00,60.6,54.4,30.23,ENE,63,0.0,0.0,80,0.00,FEW,OVC,0.00,WeatherDisplay:10.37,2013-10-12 22:04:00,
2013-10-12 18:09:00,60.0,54.5,30.23,ENE,63,0.0,0.0,82,0.00,FEW,OVC,0.00,WeatherDisplay:10.37,2013-10-12 22:09:00,
2013-10-12 18:14:00,59.6,54.1,30.23,ENE,63,0.0,0.0,82,0.00,FEW,OVC,0.00,WeatherDisplay:10.37,2013-10-12 22:14:00,
2013-10-12 18:19:00,58.8,53.7,30.23,ENE,63,0.0,0.0,83,0.00,FEW,OVC,0.00,WeatherDisplay:10.37,2013-10-12 22:19:00,
2013-10-12 18:24:00,58.1,53.6,30.23,ENE,63,0.0,0.0,85,0.00,FEW,OVC,0.00,WeatherDisplay:10.37,2013-10-12 22:24:00,
2013-10-12 18:29:00,57.7,53.5,30.23,ENE,63,0.0,0.0,86,0.00,FEW,OVC,0.00,WeatherDisplay:10.37,2013-10-12 22:29:00,
2013-10-12 18:34:00,57.2,53.4,30.23,ENE,63,0.0,0.0,87,0.00,FEW,OVC,0.00,WeatherDisplay:10.37,2013-10-12 22:34:00,
2013-10-12 18:39:00,56.9,53.1,30.23,ENE,63,0.0,0.0,87,0.00,FEW,OVC,0.00,WeatherDisplay:10.37,2013-10-12 22:39:00,
2013-10-12 18:44:00,56.7,53.2,30.23,ENE,63,0.0,0.0,88,0.00,FEW,OVC,0.00,WeatherDisplay:10.37,2013-10-12 22:44:00,
2013-10-12 18:49:00,56.5,53.0,30.23,ENE,63,0.0,0.0,88,0.00,FEW,OVC,0.00,WeatherDisplay:10.37,2013-10-12 22:49:00,
2013-10-12 18:54:00,56.2,52.7,30.23,ENE,63,0.0,0.0,88,0.00,FEW,OVC,0.00,WeatherDisplay:10.37,2013-10-12 22:54:00,
2013-10-12 18:59:00,56.0,52.5,30.23,ENE,63,0.0,0.0,88,0.00,FEW,OVC,0.00,WeatherDisplay:10.37,2013-10-12 22:59:00,
2013-10-12 19:04:00,55.6,52.5,30.24,ENE,63,0.0,0.0,89,0.00,FEW,OVC,0.00,WeatherDisplay:10.37,2013-10-12 23:04:00,
2013-10-12 19:09:00,55.3,52.4,30.24,ENE,63,0.0,0.0,90,0.00,FEW,OVC,0.00,WeatherDisplay:10.37,2013-10-12 23:09:00,
2013-10-12 19:14:00,55.2,52.3,30.24,ENE,69,0.0,0.0,90,0.00,SKC,OVC,0.00,WeatherDisplay:10.37,2013-10-12 23:14:00,
2013-10-12 19:19:00,55.2,52.3,30.24,East,85,0.0,0.0,90,0.00,SKC,OVC,0.00,WeatherDisplay:10.37,2013-10-12 23:19:00,
2013-10-12 19:24:00,55.6,52.4,30.24,East,93,0.0,0.0,89,0.00,SKC,OVC,0.00,WeatherDisplay:10.37,2013-10-12 23:24:00,
2013-10-12 19:29:00,55.8,52.3,30.24,East,92,0.0,0.0,88,0.00,SKC,OVC,0.00,WeatherDisplay:10.37,2013-10-12 23:29:00,
2013-10-12 19:34:00,56.1,52.3,30.24,East,96,0.0,0.0,87,0.00,SKC,OVC,0.00,WeatherDisplay:10.37,2013-10-12 23:34:00,
2013-10-12 19:39:00,56.6,52.5,30.24,ESE,104,0.0,0.0,86,0.00,SKC,OVC,0.00,WeatherDisplay:10.37,2013-10-12 23:39:00,
2013-10-12 19:44:00,57.2,52.4,30.24,ESE,108,0.0,0.0,84,0.00,SKC,OVC,0.00,WeatherDisplay:10.37,2013-10-12 23:44:00,
2013-10-12 19:49:00,57.5,52.4,30.24,ESE,103,0.0,2.0,83,0.00,SKC,OVC,0.00,WeatherDisplay:10.37,2013-10-12 23:49:00,
2013-10-12 19:54:00,57.8,52.3,30.25,East,101,0.0,0.0,82,0.00,SKC,OVC,0.00,WeatherDisplay:10.37,2013-10-12 23:54:00,
2013-10-12 19:59:00,57.7,52.2,30.25,East,101,0.0,2.0,82,0.00,SKC,OVC,0.00,WeatherDisplay:10.37,2013-10-12 23:59:00,
2013-10-12 20:04:00,57.8,52.3,30.25,East,80,0.0,4.0,82,0.00,SKC,OVC,0.00,WeatherDisplay:10.37,2013-10-13 00:04:00,
2013-10-12 20:09:00,58.0,52.2,30.25,ENE,71,0.0,1.0,81,0.00,SKC,OVC,0.00,WeatherDisplay:10.37,2013-10-13 00:09:00,
2013-10-12 20:14:00,57.9,52.1,30.25,East,89,0.0,1.0,81,0.00,SKC,OVC,0.00,WeatherDisplay:10.37,2013-10-13 00:14:00,
2013-10-12 20:19:00,57.9,52.1,30.25,East,88,0.0,2.0,81,0.00,SKC,OVC,0.00,WeatherDisplay:10.37,2013-10-13 00:19:00,
2013-10-12 20:24:00,57.8,52.0,30.25,East,86,0.0,3.0,81,0.00,SKC,OVC,0.00,WeatherDisplay:10.37,2013-10-13 00:24:00,
2013-10-12 20:29:00,57.9,52.1,30.25,East,94,0.0,6.0,81,0.00,SKC,OVC,0.00,WeatherDisplay:10.37,2013-10-13 00:29:00,
2013-10-12 20:34:00,57.6,51.8,30.25,East,86,0.0,3.0,81,0.00,SKC,OVC,0.00,WeatherDisplay:10.37,2013-10-13 00:34:00,
2013-10-12 20:39:00,57.9,52.1,30.25,East,84,1.0,4.0,81,0.00,SKC,OVC,0.00,WeatherDisplay:10.37,2013-10-13 00:39:00,
2013-10-12 20:44:00,58.0,51.9,30.25,ENE,71,0.0,4.0,80,0.00,SKC,OVC,0.00,WeatherDisplay:10.37,2013-10-13 00:44:00,
2013-10-12 20:49:00,57.9,52.1,30.25,ENE,74,0.0,5.0,81,0.00,SKC,OVC,0.00,WeatherDisplay:10.37,2013-10-13 00:49:00,
2013-10-12 20:54:00,58.1,52.0,30.26,East,86,0.0,3.0,80,0.00,SKC,OVC,0.00,WeatherDisplay:10.37,2013-10-13 00:54:00,
2013-10-12 20:59:00,58.1,52.3,30.26,East,88,0.0,3.0,81,0.00,SKC,OVC,0.00,WeatherDisplay:10.37,2013-10-13 00:59:00,
2013-10-12 21:04:00,57.9,52.1,30.26,East,79,0.0,3.0,81,0.00,SKC,OVC,0.00,WeatherDisplay:10.37,2013-10-13 01:04:00,
2013-10-12 21:09:00,57.5,52.0,30.26,ESE,109,0.0,1.0,82,0.00,SKC,OVC,0.00,WeatherDisplay:10.37,2013-10-13 01:09:00,
2013-10-12 21:14:00,57.2,51.8,30.26,NE,37,0.0,1.0,82,0.00,SKC,OVC,0.00,WeatherDisplay:10.37,2013-10-13 01:14:00,
2013-10-12 21:19:00,57.1,52.0,30.26,ENE,78,0.0,1.0,83,0.00,SKC,OVC,0.00,WeatherDisplay:10.37,2013-10-13 01:19:00,
2013-10-12 21:24:00,57.0,51.9,30.26,East,100,1.0,3.0,83,0.00,SKC,OVC,0.00,WeatherDisplay:10.37,2013-10-13 01:24:00,
2013-10-12 21:29:00,57.0,51.9,30.26,East,85,0.0,1.0,83,0.00,SKC,OVC,0.00,WeatherDisplay:10.37,2013-10-13 01:29:00,
2013-10-12 21:34:00,56.8,52.0,30.26,ENE,77,0.0,3.0,84,0.00,SKC,OVC,0.00,WeatherDisplay:10.37,2013-10-13 01:34:00,
2013-10-12 21:39:00,56.6,51.8,30.26,ENE,78,0.0,5.0,84,0.00,SKC,OVC,0.00,WeatherDisplay:10.37,2013-10-13 01:39:00,
2013-10-12 21:44:00,56.5,51.7,30.26,East,92,0.0,3.0,84,0.00,SKC,OVC,0.00,WeatherDisplay:10.37,2013-10-13 01:44:00,
2013-10-12 21:49:00,56.6,51.8,30.27,ENE,78,0.0,6.0,84,0.00,SKC,OVC,0.00,WeatherDisplay:10.37,2013-10-13 01:49:00,
2013-10-12 21:54:00,56.5,51.8,30.27,ENE,77,0.0,3.0,84,0.00,SKC,OVC,0.00,WeatherDisplay:10.37,2013-10-13 01:54:00,
2013-10-12 21:59:00,56.5,51.7,30.27,ENE,77,0.0,3.0,84,0.00,SKC,OVC,0.00,WeatherDisplay:10.37,2013-10-13 01:59:00,
2013-10-12 22:04:00,56.3,51.6,30.27,East,93,0.0,2.0,84,0.00,SKC,OVC,0.00,WeatherDisplay:10.37,2013-10-13 02:04:00,
2013-10-12 22:09:00,56.0,51.6,30.27,East,83,0.0,3.0,85,0.00,SKC,OVC,0.00,WeatherDisplay:10.37,2013-10-13 02:09:00,
2013-10-12 22:14:00,55.8,51.4,30.27,East,99,0.0,4.0,85,0.00,SKC,OVC,0.00,WeatherDisplay:10.37,2013-10-13 02:14:00,
2013-10-12 22:19:00,55.5,51.4,30.27,East,100,0.0,2.0,86,0.00,SKC,OVC,0.00,WeatherDisplay:10.37,2013-10-13 02:19:00,
2013-10-12 22:24:00,55.5,51.4,30.27,East,91,0.0,2.0,86,0.00,SKC,OVC,0.00,WeatherDisplay:10.37,2013-10-13 02:24:00,
2013-10-12 22:29:00,55.3,51.1,30.27,ENE,66,0.0,0.0,86,0.00,SKC,OVC,0.00,WeatherDisplay:10.37,2013-10-13 02:29:00,
2013-10-12 22:34:00,55.0,51.2,30.28,ENE,72,0.0,4.0,87,0.00,SKC,OVC,0.00,WeatherDisplay:10.37,2013-10-13 02:34:00,
2013-10-12 22:39:00,55.1,51.0,30.28,ENE,66,0.0,0.0,86,0.00,SKC,OVC,0.00,WeatherDisplay:10.37,2013-10-13 02:39:00,
2013-10-12 22:44:00,55.1,51.0,30.28,NE,54,0.0,0.0,86,0.00,SKC,OVC,0.00,WeatherDisplay:10.37,2013-10-13 02:44:00,
2013-10-12 22:49:00,54.9,51.1,30.28,ENE,61,0.0,1.0,87,0.00,SKC,OVC,0.00,WeatherDisplay:10.37,2013-10-13 02:49:00,
2013-10-12 22:54:00,54.7,50.9,30.28,East,91,0.0,1.0,87,0.00,SKC,OVC,0.00,WeatherDisplay:10.37,2013-10-13 02:54:00,
2013-10-12 22:59:00,54.6,50.8,30.28,East,88,0.0,0.0,87,0.00,SKC,OVC,0.00,WeatherDisplay:10.37,2013-10-13 02:59:00,
2013-10-12 23:04:00,54.3,50.6,30.28,East,81,0.0,2.0,87,0.00,SKC,OVC,0.00,WeatherDisplay:10.37,2013-10-13 03:04:00,
2013-10-12 23:09:00,54.2,50.7,30.28,East,86,0.0,5.0,88,0.00,SKC,OVC,0.00,WeatherDisplay:10.37,2013-10-13 03:09:00,
2013-10-12 23:14:00,54.1,50.6,30.28,East,88,0.0,0.0,88,0.00,SKC,OVC,0.00,WeatherDisplay:10.37,2013-10-13 03:14:00,
2013-10-12 23:19:00,54.2,50.7,30.28,East,88,0.0,3.0,88,0.00,SKC,OVC,0.00,WeatherDisplay:10.37,2013-10-13 03:19:00,
2013-10-12 23:24:00,54.1,50.3,30.29,East,93,0.0,2.0,87,0.00,SKC,OVC,0.00,WeatherDisplay:10.37,2013-10-13 03:24:00,
2013-10-12 23:29:00,54.1,50.6,30.29,East,88,0.0,1.0,88,0.00,SKC,OVC,0.00,WeatherDisplay:10.37,2013-10-13 03:29:00,
2013-10-12 23:34:00,53.9,50.4,30.29,ENE,74,0.0,2.0,88,0.00,SKC,OVC,0.00,WeatherDisplay:10.37,2013-10-13 03:34:00,
2013-10-12 23:39:00,53.7,50.2,30.28,ENE,65,0.0,0.0,88,0.00,SKC,OVC,0.00,WeatherDisplay:10.37,2013-10-13 03:39:00,
2013-10-12 23:44:00,53.7,50.2,30.28,ENE,59,0.0,1.0,88,0.00,SKC,OVC,0.00,WeatherDisplay:10.37,2013-10-13 03:44:00,
2013-10-12 23:49:00,53.6,50.1,30.28,ENE,76,0.0,0.0,88,0.00,SKC,OVC,0.00,WeatherDisplay:10.37,2013-10-13 03:49:00,
2013-10-12 23:54:00,53.6,50.1,30.28,East,80,0.0,1.0,88,0.00,SKC,OVC,0.00,WeatherDisplay:10.37,2013-10-13 03:54:00,
2013-10-12 23:59:00,53.4,49.9,30.29,ENE,65,0.0,2.0,88,0.00,SKC,OVC,0.00,WeatherDisplay:10.37,2013-10-13 03:59:00,